Weather History for Doylestown, PA

Change the Weather History Date:

Monday, February 25, 2013

  Actual Average (KTTN) Record (KTTN)
Temperature  
Mean Temperature 34 °F 36 °F  
Max Temperature 43 °F 45 °F 76 °F (1930)
Min Temperature 26 °F 27 °F 1 °F (1894)
Degree Days  
Heating Degree Days 30 29  
Month to date heating degree days 782  
Since 1 July heating degree days 3728  
Cooling Degree Days 0 0  
Month to date cooling degree days 0  
Year to date cooling degree days 0  
Moisture  
Dew Point 23 °F    
Average Humidity 64    
Maximum Humidity 75    
Minimum Humidity 47    
Precipitation  
Precipitation 0.00 in 0.09 in 1.08 in (2011)
Month to date precipitation 2.02  
Year to date precipitation 5.18  
Sea Level Pressure  
Sea Level Pressure 30.15 in    
Wind  
Wind Speed 5 mph (NNW)    
Max Wind Speed 12 mph    
Max Gust Speed 17 mph    
Visibility 10 miles    
Events      
T = Trace of Precipitation, MM = Missing Value Source: NWS Daily Summary

Daily Weather History Graph

Daily Weather History Graph

Search for Another Location

Airport:

Trip Planner

Search our weather history database for the weather conditions in past years. The results will help you decide how hot, cold, wet, or windy it might be!

Date:

Astronomy

Feb. 25, 2013 Rise Set
Actual Time 6:39 AM EST 5:47 PM EST
Civil Twilight 6:12 AM EST 6:15 PM EST
Nautical Twilight 5:40 AM EST 6:46 PM EST
Astronomical Twilight 5:09 AM EST 7:18 PM EST
Moon 5:58 PM EST (2/25) 6:08 AM EST (2/25)
Length of Visible Light 12h 03m
Length of Day
11h 08m
Full, 100% of the Moon is Illuminated
Feb 25
Full
Feb 25
Full
Mar 4
Last Quarter
Mar 11
New
Mar 19
First Quarter

Hourly Weather History & Observations

Time (EST) Temp. Windchill Dew Point Humidity Pressure Visibility Wind Dir Wind Speed Gust Speed Precip Events Conditions
12:54 AM 28.9 °F 22.8 °F 19.0 °F 67% 30.04 in 10.0 mi WNW 5.8 mph - N/A   Clear
1:54 AM 28.9 °F 25.2 °F 19.0 °F 67% 30.06 in 10.0 mi West 3.5 mph - N/A   Clear
2:54 AM 28.0 °F 22.8 °F 19.0 °F 69% 30.06 in 10.0 mi NW 4.6 mph - N/A   Clear
3:54 AM 28.0 °F 24.2 °F 19.0 °F 69% 30.07 in 10.0 mi WNW 3.5 mph - N/A   Clear
4:54 AM 27.0 °F - 19.9 °F 75% 30.09 in 10.0 mi Calm Calm - N/A   Partly Cloudy
5:54 AM 27.0 °F 23.0 °F 19.9 °F 75% 30.11 in 10.0 mi WNW 3.5 mph - N/A   Clear
6:15 AM 26.6 °F 21.2 °F 19.4 °F 74% 30.08 in 10.0 mi NW 4.6 mph - N/A   Mostly Cloudy
6:29 AM 28.4 °F 23.3 °F 19.4 °F 69% 30.09 in 10.0 mi NW 4.6 mph - N/A   Scattered Clouds
6:54 AM 28.0 °F 21.7 °F 21.0 °F 75% 30.12 in 10.0 mi NW 5.8 mph - N/A   Scattered Clouds
7:54 AM 32.0 °F 26.4 °F 21.9 °F 66% 30.14 in 10.0 mi NW 5.8 mph - N/A   Clear
8:54 AM 36.0 °F 30.3 °F 24.1 °F 62% 30.15 in 10.0 mi NW 6.9 mph - N/A   Clear
9:54 AM 39.0 °F 32.3 °F 26.1 °F 60% 30.15 in 10.0 mi North 10.4 mph 17.3 mph N/A   Scattered Clouds
10:54 AM 41.0 °F 35.8 °F 27.0 °F 57% 30.17 in 10.0 mi North 8.1 mph - N/A   Mostly Cloudy
11:54 AM 39.9 °F 32.9 °F 26.1 °F 58% 30.18 in 10.0 mi North 11.5 mph - N/A   Overcast
12:54 PM 42.1 °F 38.4 °F 26.1 °F 53% 30.18 in 10.0 mi NNW 5.8 mph - N/A   Mostly Cloudy
1:54 PM 43.0 °F 37.7 °F 24.1 °F 47% 30.17 in 10.0 mi North 9.2 mph - N/A   Mostly Cloudy
2:54 PM 42.1 °F 37.1 °F 23.0 °F 47% 30.17 in 10.0 mi North 8.1 mph - N/A   Scattered Clouds
4:54 PM 42.1 °F 38.4 °F 24.1 °F 49% 30.17 in 10.0 mi Variable 5.8 mph - N/A   Mostly Cloudy
5:54 PM 39.9 °F 36.7 °F 24.1 °F 53% 30.20 in 10.0 mi NNE 4.6 mph - N/A   Overcast
6:54 PM 37.9 °F 35.5 °F 24.1 °F 57% 30.22 in 10.0 mi North 3.5 mph - N/A   Overcast
7:54 PM 34.0 °F - 24.1 °F 67% 30.23 in 10.0 mi Calm Calm - N/A   Clear
8:54 PM 33.1 °F - 24.1 °F 70% 30.24 in 10.0 mi Calm Calm - N/A   Clear
9:54 PM 30.0 °F - 23.0 °F 75% 30.24 in 10.0 mi Calm Calm - N/A   Clear
10:54 PM 30.0 °F - 23.0 °F 75% 30.23 in 10.0 mi Calm Calm - N/A   Clear